This is the latest recevied weather packets stored in our database for station/object KC8BSD. If no packets are shown the sender has not sent any weather packets the latest 10 day(s).
| Time | Temp. | Humidity | Pressure | Rain* | Wind** | Luminosity | Snow |
|---|---|---|---|---|---|---|---|
| 1778085242 | 10.56° C | 51% | 1014.4 hPa | 0 mm | - | 289 W/m² | - |
| 1778084936 | 10.56° C | 52% | 1014.3 hPa | 0 mm | - | 294 W/m² | - |
| 1778084635 | 10.56° C | 51% | 1014.1 hPa | 0 mm | - | 253 W/m² | - |
| 1778084327 | 10° C | 52% | 1014.5 hPa | 0 mm | - | 275 W/m² | - |
| 1778084024 | 10.56° C | 51% | 1014.5 hPa | 0 mm | - | 258 W/m² | - |
| 1778083722 | 10.56° C | 53% | 1014.4 hPa | 0 mm | - | 287 W/m² | - |
| 1778083418 | 10.56° C | 51% | 1014.3 hPa | 0 mm | - | 325 W/m² | - |
| 1778083117 | 10.56° C | 52% | 1014.3 hPa | 0 mm | - | 438 W/m² | - |
| 1778082813 | 10.56° C | 52% | 1014.2 hPa | 0 mm | - | 362 W/m² | - |
| 1778081691 | 11.11° C | 52% | 1014 hPa | 0 mm | - | 265 W/m² | - |
| 1778081389 | 11.67° C | 51% | 1013.9 hPa | 0 mm | - | 493 W/m² | - |
| 1778081085 | 11.11° C | 53% | 1014.1 hPa | 0 mm | - | 536 W/m² | - |
| 1778080784 | 11.11° C | 50% | 1013.9 hPa | 0 mm | - | 518 W/m² | - |
| 1778080481 | 11.67° C | 51% | 1013.8 hPa | 0 mm | - | 335 W/m² | - |
| 1778080178 | 11.11° C | 55% | 1013.9 hPa | 0 mm | - | 517 W/m² | - |
| 1778079874 | 11.11° C | 53% | 1013.9 hPa | 0 mm | - | 367 W/m² | - |
| 1778079571 | 11.67° C | 53% | 1013.8 hPa | 0 mm | - | 320 W/m² | - |
| 1778079267 | 12.22° C | 50% | 1013.7 hPa | 0 mm | - | 567 W/m² | - |
| 1778078965 | 12.22° C | 51% | 1013.9 hPa | 0 mm | - | 594 W/m² | - |
| 1778078661 | 12.22° C | 54% | 1013.8 hPa | 0 mm | - | 466 W/m² | - |
| 1778078360 | 11.67° C | 57% | 1013.9 hPa | 0 mm | - | 449 W/m² | - |
| 1778078056 | 10.56° C | 57% | 1013.8 hPa | 0 mm | - | 462 W/m² | - |
| 1778077755 | 10.56° C | 56% | 1013.5 hPa | 0 mm | - | 414 W/m² | - |
| 1778077452 | 10.56° C | 59% | 1013.3 hPa | 0 mm | - | 459 W/m² | - |
| 1778077150 | 10.56° C | 59% | 1013.6 hPa | 0 mm | - | 473 W/m² | - |
* Rain latest hour (hover to see other rain measurements)
** Current wind speed in m/s (hover to see current wind gust speed)